QB50-5
1 42705U 98067LN 17137.37875399 -.02459689 00000-0 -42501-1 0 9996
2 42705 051.6494 191.8702 0010788 197.9671 267.2667 15.54096936000128
QB50-6
1 42706U 98067LP 17137.44725628 .00193392 00000-0 27818-2 0 9991
2 42706 051.6328 191.5488 0000743 155.6461 331.0837 15.54868073000062
QB50-7
1 42707U 98067LQ 17138.20956539 .00023865 00000-0 35363-3 0 9996
2 42707 051.6431 187.6969 0004204 215.5498 222.0175 15.55116544000165
QB50-8
1 42708U 98067LR 17138.14012523 .00013042 00000-0 19823-3 0 9995
2 42708 051.6473 188.0621 0001354 089.3798 318.4101 15.54910336000131
/EX
1
0
SB KEPS @ AMSAT $ORB17131.N
2Line Orbital Elements 17131.AMSAT
HR AMSAT ORBITAL ELEMENTS FOR AMATEUR SATELLITES IN NASA FORMAT
FROM WA5QGD FORT WORTH,TX May 11, 2017
BID: ORB17131.N
DECODE 2-LINE ELSETS WITH THE FOLLOWING KEY:
1 AAAAAU 00 0 0 BBBBB.BBBBBBBB .CCCCCCCC 00000-0 00000-0 0 DDDZ
2 AAAAA EEE.EEEE FFF.FFFF GGGGGGG HHH.HHHH III.IIII JJ.JJJJJJJJKKKKKZ
KEY: A-CATALOGNUM B-EPOCHTIME C-DECAY D-ELSETNUM E-INCLINATION F-RAAN
G-ECCENTRICITY H-ARGPERIGEE I-MNANOM J-MNMOTION K-ORBITNUM Z-CHECKSUM
TO ALL RADIO AMATEURS BT
AO-07
1 07530U 74089B 17131.53938664 -.00000049 00000-0 -29413-4 0 9998
2 07530 101.6273 100.9508 0012395 034.9836 078.7926 12.53626859944039
UO-11
1 14781U 84021B 17131.59508517 .00000069 00000-0 14842-4 0 9997
2 14781 097.7009 178.6505 0007561 328.5310 031.5451 14.82890073763926
LO-19
1 20442U 90005G 17131.55291174 -.00000005 00000-0 14347-4 0 9992
2 20442 098.5742 068.4429 0010592 255.0775 104.9236 14.32858350426310
HUBBLE
1 20580U 90037B 17131.57336071 .00000476 00000-0 18370-4 0 9999
2 20580 028.4695 249.4554 0002846 135.1079 331.8030 15.08759380284660
MET-2/21
1 22782U 93055A 17131.51947704 .00000067 00000-0 47322-4 0 9998
2 22782 082.5517 052.6845 0022504 170.3953 312.1832 13.83801558196358
AO-27
1 22825U 93061C 17131.45848341 -.00000009 00000-0 14322-4 0 9994
2 22825 098.8091 096.5951 0009554 079.8983 280.3276 14.29995107231885
IO-26
1 22826U 93061D 17131.49796891 -.00000006 00000-0 15301-4 0 9996
2 22826 098.8033 096.7214 0010047 071.2814 288.9458 14.30323598232084
FO-29
1 24278U 96046B 17131.56212490 .00000001 00000-0 34073-4 0 9992
2 24278 098.5694 019.6854 0351388 072.3458 291.5724 13.53076250023676
NOAA-15
1 25338U 98030A 17131.58312456 .00000032 00000-0 32285-4 0 9997
2 25338 098.7829 142.4190 0009694 317.8500 042.1933 14.25791044987529
GO-32
1 25397U 98043D 17131.43677516 -.00000022 00000-0 94535-5 0 9998
2 25397 098.6077 074.5534 0002420 097.4543 262.6911 14.23621255978342
ISS
1 25544U 98067A 17131.59792321 .00002092 00000-0 39024-4 0 9996
2 25544 051.6432 220.6807 0005403 145.8482 354.3636 15.54003729056065
NO-44
1 26931U 01043C 17131.33064249 -.00000020 00000-0 24251-4 0 9994
2 26931 067.0506 186.2915 0008010 270.9632 089.0551 14.30458988815009
SO-50
1 27607U 02058C 17131.60246948 -.00000011 00000-0 18843-4 0 9990
2 27607 064.5558 237.3559 0031009 115.3422 245.0897 14.75319966773588
CO-55
1 27844U 03031E 17131.55769620 .00000047 00000-0 40803-4 0 9995
2 27844 098.6902 141.0965 0011016 093.4705 266.7733 14.22034509719072
CO-57
1 27848U 03031J 17131.54754537 .00000031 00000-0 34124-4 0 9991
2 27848 098.6995 141.3297 0010898 101.7714 258.4687 14.21649393718964
RS-22
1 27939U 03042A 17131.60652823 .00000092 00000-0 24923-4 0 9999
2 27939 097.9336 277.5379 0012565 348.6227 075.8500 14.66557754727810
NOAA-18
1 28654U 05018A 17131.57001871 .00000014 00000-0 32726-4 0 9990
2 28654 099.1847 152.8852 0014578 170.2579 189.8877 14.12336240616997
CO-58
1 28895U 05043F 17131.18235487 .00000136 00000-0 35069-4 0 9992
2 28895 097.8608 295.1890 0015432 259.6651 100.2812 14.63385321615074
Falconsat-3
1 30776U 07006E 17130.89195352 .00002084 00000-0 67382-4 0 9994
2 30776 035.4365 303.1863 0003596 338.1176 021.9396 15.32061098562533
CO-65
1 32785U 08021C 17131.45618350 .00000222 00000-0 29969-4 0 9996
2 32785 097.5691 157.4013 0011608 292.8746 067.1245 14.87865874489362
AAUSAT2
1 32788U 08021F 17131.59415643 .00000560 00000-0 57912-4 0 9998
2 32788 097.5621 168.9524 0010411 249.9229 110.0871 14.93825127490114
DO-64
1 32789U 08021G 17131.38596791 .00001556 00000-0 11461-3 0 9994
2 32789 097.5616 190.3893 0012034 221.5419 138.4894 15.04745198491333
CO-66
1 32791U 08021J 17131.31340749 .00000301 00000-0 36504-4 0 9993
2 32791 097.5663 161.5149 0011843 276.5189 083.4681 14.90188895489578
RS-30
1 32953U 08025A 17131.58225872 -.00000002 00000-0 -85375-4 0 9995
2 32953 082.5026 262.4104 0018601 008.6225 351.5171 12.43076336406878
PRISM
1 33493U 09002B 17131.56830116 .00001181 00000-0 11190-3 0 9992
2 33493 098.1747 012.4478 0014182 198.7470 161.3219 14.95624939450305
NOAA-19
1 33591U 09005A 17131.56787793 .00000068 00000-0 62076-4 0 9999
2 33591 099.0896 097.8793 0014410 019.4517 340.7201 14.12178308425221
TISAT-1
1 36799U 10035E 17131.28508875 .00000475 00000-0 54804-4 0 9990
2 36799 098.0565 253.2766 0013877 089.3229 270.9578 14.90354511370088
JUGNU
1 37839U 11058B 17130.85993514 .00000318 00000-0 27868-4 0 9998
2 37839 019.9621 316.8123 0018947 131.7200 359.6533 14.12581799288309
SRMSAT
1 37841U 11058D 17130.86239032 .00000306 00000-0 23306-4 0 9990
2 37841 019.9734 357.7106 0011818 031.8049 063.5642 14.10573245288007
AO-71
1 37854U 11061E 17131.46328918 .00001532 00000-0 89772-4 0 9998
2 37854 101.7086 346.4096 0167962 183.6318 176.3687 15.03943851300960
HRBE
1 37855U 11061F 17131.18146506 .00001330 00000-0 77709-4 0 9992
2 37855 101.7219 343.8124 0181138 190.7309 169.0014 15.02902161300761
ALMASAT-1
1 38078U 12006B 17131.59647845 .00011137 36544-5 13331-3 0 9990
2 38078 069.4410 230.7004 0315912 344.2312 014.9191 15.20720839279222
HORYU-2
1 38340U 12025D 17131.53120953 .00000207 00000-0 38727-4 0 9999
2 38340 098.3764 134.1622 0012770 052.9623 307.2751 14.75317230257473
RS-40
1 38735U 12041C 17131.57476990 .00000013 00000-0 22803-4 0 9997
2 38735 082.4757 347.0212 0017559 106.8814 253.4192 12.42574258217124
BEESAT-3
1 39134U 13015E 17130.98807347 .00001063 00000-0 61784-4 0 9998
2 39134 064.8673 346.5195 0034050 278.1355 081.5909 15.17679186223451
BEESAT-2
1 39136U 13015G 17131.40876489 .00000670 00000-0 45812-4 0 9998
2 39136 064.8706 355.3429 0031404 288.6657 071.1060 15.14988515223313
ZACUBE-1
1 39417U 13066B 17131.60105790 .00000186 00000-0 30099-4 0 9991
2 39417 097.6330 175.6102 0060102 031.0888 329.3859 14.80686723187362
TRITON-1
1 39427U 13066M 17131.57414889 .00000174 00000-0 35541-4 0 9994
2 39427 097.6394 149.3823 0115976 105.8886 255.5138 14.67436945185484
GOMX-1
1 39430U 13066Q 17131.54612885 .00000173 00000-0 40189-4 0 9994
2 39430 097.6647 133.3786 0152543 158.2219 202.5562 14.58846776184404
LO-74
1 39440U 13066AA 17131.55556504 .00000208 00000-0 36108-4 0 9996
2 39440 097.6319 165.0333 0082155 059.9185 301.0139 14.75427914185494
AO-73
1 39444U 13066AE 17131.59873600 .00000253 00000-0 37961-4 0 9991
2 39444 097.6345 176.6149 0059202 028.0555 332.3828 14.81413824185602
SPROUT
1 39770U 14029E 17131.53794332 .00000753 00000-0 91950-4 0 9994
2 39770 097.8702 231.2737 0010876 088.9485 271.2996 14.86170855160693
DUCHIFAT-1
1 40021U 14033M 17131.49416908 .00000440 00000-0 51666-4 0 9998
2 40021 097.9206 044.6036 0014597 064.6143 295.6584 14.89845879157134
NANOSATCBR1
1 40024U 14033Q 17131.27812979 .00000319 00000-0 39674-4 0 9995
2 40024 097.9168 043.3326 0013867 066.3533 293.9138 14.89177209156537
EO-79
1 40025U 14033R 17131.57414286 .00000274 00000-0 35606-4 0 9999
2 40025 097.9150 042.7240 0014019 067.8438 292.4265 14.88388202156538
